Regional Weather Roundup
Issued by NWS Northern Indiana

Home | Current Version | Previous Version | Text Only | Print | Product List | Glossary On
Versions: 1 2 3 4 5 6 7 8 9 10 11 12 13 14 15 16 17 18 19 20 21 22 23 24 25 26 27 28 29 30 31 32 33 34 35 36 37 38 39 40 41 42 43 44 45 46 47 48 49 50
000
ASUS43 KIWX 301010
RWRIWX

KIWX WEATHER ROUNDUP
NATIONAL WEATHER SERVICE NORTHERN INDIANA
600 AM EDT SAT AUG 30 2014

NOTE: "FAIR" INDICATES FEW OR NO CLOUDS BELOW 12,000 FEET WITH NO
SIGNIFICANT WEATHER AND/OR OBSTRUCTIONS TO VISIBILITY.

* THESE STATIONS ARE NOT UNDER NWS QUALITY CONTROL. THEY ALSO MAY NOT
  REPORT WEATHER SUCH AS PRECIPITATION OR FOG.

INZ001>027-301100-
NORTHERN INDIANA

CITY           SKY/WX    TMP DP  RH WIND       PRES   REMARKS
GARY*          PTCLDY    75  70  83 S13       29.87S
VALPARAISO     MOCLDY    73  68  84 S10       29.89F
MICHIGAN CITY* CLOUDY    72  64  78 S9G16     29.88S
LAPORTE*       MOCLDY    71  68  88 S8        29.90S
KNOX*          MOCLDY    72  66  83 S7        29.90S
SOUTH BEND     MOCLDY    73  67  81 S9        29.91R
GOSHEN         PTCLDY    74  66  76 S13       29.92F
MONTICELLO*    CLOUDY    73  67  84 S7        29.92S
LOGANSPORT*    CLOUDY    72  63  73 S7        29.95S
ROCHESTER*     PTCLDY    73  68  83 S9        29.94S
WARSAW*        MOCLDY    72  64  78 S5        29.94S
ANGOLA*        CLEAR     66  57  72 S3        29.95F
FORT WAYNE     PTCLDY    70  64  81 S10       29.98R
HUNTINGTON*    PTCLDY    69  65  85 S6        29.97S
PERU/GRISSOM   CLOUDY    73  69  89 S8        29.95S
MARION*        CLOUDY    70  62  76 S8        29.99R

$$
INZ028>050-301100-
CENTRAL INDIANA

CITY           SKY/WX    TMP DP  RH WIND       PRES   REMARKS
LAFAYETTE      CLOUDY    72  67  84 S7        29.93S
KOKOMO*        MOCLDY    72  64  78 S10       29.96S
MUNCIE*        CLEAR     72  61  68 S9        30.00R
INDIANAPOLIS   MOCLDY    72  63  73 S8        29.97S

$$
MIZ043>046-050>051-056>058-064>065-071>073-077>080-301100-
SOUTHWEST LOWER MICHIGAN

CITY           SKY/WX    TMP DP  RH WIND       PRES   REMARKS
BATTLE CREEK   PTCLDY    71  65  81 S10       29.92F
BENTON HARBOR  CLOUDY    74  67  78 S12G20    29.87S
COLDWATER*     PTCLDY    71  66  84 S6        29.94S
HILLSDALE*     CLEAR     69  67  94 S6        29.97S
HOLLAND        CLOUDY    74  68  81 S10       29.86F
GRAND RAPIDS   CLOUDY    73  71  93 S9        29.88F
KALAMAZOO      MOCLDY    72  66  81 S9        29.90F
STURGIS*         N/A     72  66  83 S9        29.93S
THREE RIVERS*  MOCLDY    72  67  83 S8        29.92S

$$
OHZ001>008-015>018-024>025-301100-
NORTHWEST OHIO

CITY           SKY/WX    TMP DP  RH WIND       PRES   REMARKS
WAUSEON*       FAIR      66  64  94 S7        29.98S
DEFIANCE       CLEAR     73  65  75 S10       29.97S
FINDLAY        CLEAR     68  63  84 S10       30.00S
TOLEDO EXPRESS CLEAR     69  63  81 S7        29.97F
TOLEDO METCALF PTCLDY    70  62  76 S10       29.99S
LIMA           CLEAR     71  65  81 S10       30.02S

$$
&&


USA.gov is the U.S. government's official web portal to all federal, state and local government web resources and services.